Weather History for KPKD - September, 2011

Change the Weather History Date:

Tuesday, September 13, 2011

  Actual Average Record
Temperature  
Mean Temperature 54 °F -  
Max Temperature 69 °F 68 °F 85 °F (1990)
Min Temperature 39 °F 46 °F 26 °F (1975)
Degree Days  
Heating Degree Days 11    
Growing Degree Days 4 (Base 50)    
Moisture  
Dew Point 38 °F    
Average Humidity 63    
Maximum Humidity 97    
Minimum Humidity 30    
Precipitation  
Precipitation 0.00 in - - ()
Sea Level Pressure  
Sea Level Pressure 30.03 in    
Wind  
Wind Speed 9 mph (WNW)    
Max Wind Speed 23 mph    
Max Gust Speed 32 mph    
Visibility 10 miles    
Events      
Averages and records for this station are not official NWS values.
T = Trace of Precipitation, MM = Missing Value Source: NWS Daily Summary

Daily Weather History Graph

Daily Weather History Graph

Search for Another Location

Airport or City:

Trip Planner

Search our weather history database for the weather conditions in past years. The results will help you decide how hot, cold, wet, or windy it might be!

Date:

Astronomy

Sep. 13, 2011 Rise Set
Actual Time 6:55 AM CDT 7:36 PM CDT
Civil Twilight 6:24 AM CDT 8:07 PM CDT
Nautical Twilight 5:47 AM CDT 8:43 PM CDT
Astronomical Twilight 5:09 AM CDT 9:21 PM CDT
Moon 7:41 PM CDT (9/13) 8:19 AM CDT (9/13)
Length of Visible Light 13h 42m
Length of Day
12h 41m
Full, 98% of the Moon is Illuminated
Sep 13
Full
Sep 20
Last Quarter
Sep 27
New
Oct 3
First Quarter
Oct 11
Full

Hourly Weather History & Observations

Time (CDT) Temp. Windchill Dew Point Humidity Pressure Visibility Wind Dir Wind Speed Gust Speed Precip Events Conditions
12:53 AM 46.9 °F - 42.1 °F 83% 29.99 in 10.0 mi NW 5.8 mph - N/A   Clear
1:53 AM 44.1 °F 40.8 °F 41.0 °F 89% 30.01 in 10.0 mi WNW 5.8 mph - N/A   Clear
2:53 AM 44.1 °F - 41.0 °F 89% 30.01 in 10.0 mi Calm Calm - N/A   Clear
3:53 AM 41.0 °F 39.0 °F 39.0 °F 93% 30.03 in 10.0 mi WNW 3.5 mph - N/A   Clear
4:53 AM 39.9 °F - 39.0 °F 97% 30.03 in 10.0 mi Calm Calm - N/A   Clear
5:53 AM 39.9 °F 35.8 °F 37.9 °F 93% 30.04 in 10.0 mi West 5.8 mph - N/A   Clear
6:53 AM 39.9 °F 36.7 °F 39.0 °F 97% 30.04 in 10.0 mi West 4.6 mph - N/A   Overcast
7:53 AM 43.0 °F 40.3 °F 42.1 °F 97% 30.04 in 10.0 mi West 4.6 mph - N/A   Unknown
8:53 AM 51.1 °F - 45.0 °F 80% 30.03 in 10.0 mi West 8.1 mph - N/A   Clear
9:53 AM 59.0 °F - 42.1 °F 53% 30.02 in 10.0 mi WNW 15.0 mph 18.4 mph N/A   Clear
10:53 AM 62.1 °F - 39.9 °F 44% 30.02 in 10.0 mi West 15.0 mph - N/A   Clear
11:53 AM 64.0 °F - 39.9 °F 41% 30.01 in 10.0 mi West 18.4 mph 24.2 mph N/A   Clear
12:53 PM 66.2 °F - 39.2 °F 37% 29.98 in 10.0 mi WNW 20.7 mph - N/A   Scattered Clouds
1:53 PM 64.9 °F - 39.9 °F 40% 29.98 in 10.0 mi West 12.7 mph 28.8 mph N/A   Overcast
2:53 PM 69.1 °F - 36.0 °F 30% 29.96 in 10.0 mi West 18.4 mph 29.9 mph N/A   Overcast
3:53 PM 66.0 °F - 36.0 °F 33% 29.96 in 10.0 mi West 18.4 mph 29.9 mph N/A   Overcast
4:53 PM 66.0 °F - 35.1 °F 32% 29.96 in 10.0 mi WNW 17.3 mph 27.6 mph 0.00 in   Overcast
5:53 PM 63.0 °F - 39.0 °F 41% 29.98 in 10.0 mi NW 23.0 mph 32.2 mph N/A   Mostly Cloudy
6:53 PM 57.0 °F - 41.0 °F 55% 30.03 in 10.0 mi NNW 19.6 mph 29.9 mph N/A   Scattered Clouds
7:53 PM 52.0 °F - 39.9 °F 63% 30.07 in 10.0 mi NNW 12.7 mph - N/A   Clear
8:53 PM 50.0 °F - 32.0 °F 50% 30.09 in 10.0 mi NNW 13.8 mph 25.3 mph N/A   Partly Cloudy
9:53 PM 46.0 °F 39.0 °F 30.0 °F 54% 30.13 in 10.0 mi NNW 17.3 mph 28.8 mph N/A   Clear
10:53 PM 44.6 °F 38.1 °F 28.4 °F 53% 30.13 in 10.0 mi NNW 13.8 mph 20.7 mph N/A   Clear
11:53 PM 41.0 °F 34.3 °F 28.9 °F 62% 30.18 in 10.0 mi NNW 11.5 mph - N/A   Clear